Content
SEND FEEDBACK

Daily
Averages
Monthly
Summary
United States of America

WILMINGTON, NORTH CAROLINA


Home > North America > United States > North Carolina
Elevation: 72 feet     Latitude: 34 16N     Longitude: 077 54W

WEATHER
 
SELECT A DAY
Number of Records: 208,780;   Date Range: 1/1/95 - 7/26/14
 
SHARE

PRINT THIS DATA

[ ← Previous Day ]
WEATHER ALMANAC - FEBRUARY 17, 2013
[ Next Day → ]
[ °C ]   °F
Weather ElementAverageHighLow
Temperature35.5 °F41 °F (2:53 pm)30.9 °F (5:53 am)
Dewpoint19.6 °F32 °F (12:20 am)10.9 °F (1:53 pm)
Humidity55.7 %87 % (12:20 am)32 % (1:53 pm)
Barometer30.08 in30.29 in (10:53 pm)29.91 in (12:20 am)
Wind Speed14.5 mph24.2 mph (11:53 am)
Wind Gust35.7 mph (12:53 pm)
Weather ElementAverage
Visibility9.6 mi
Wind DirectionWNW (290.4 °)

Weather ElementTotal
Precipitation0.08 in
Heating Degree Days29.1 (Base 65)
Averaged from 26 records on February 17, 2013
WEATHER CONDITIONS BREAKOUT
WIND DIRECTION BREAKOUT
WEATHER BY HOUR - FEBRUARY 17, 2013
[ °C ]   °F
Local TimeTemperatureDewpointHumidityBarometerVisibilityWind DirectionWind SpeedGust SpeedPrecipitationEventsConditions
12:20 AM35.6 °F32.0 °F87 %29.91 in7.0 miWNW (300°)12.7 mph19.6 mph0.02 inSnowLight Snow
12:49 AM35.6 °F32.0 °F87 %29.92 in8.0 miNW (310°)15.0 mph0.03 inSnowLight Snow
12:53 AM35.1 °F30.9 °F85 %29.92 in7.0 miNW (310°)18.4 mph31.1 mph0.03 inSnowLight Snow
1:03 AM35.6 °F30.2 °F81 %29.92 in8.0 miNW (310°)12.7 mph20.7 mph0.00 inSnowLight Snow
1:53 AM35.1 °F28.9 °F78 %29.93 in10.0 miWNW (300°)13.8 mph0.00 inOvercast
2:53 AM33.1 °F24.1 °F70 %29.95 in10.0 miNW (310°)15.0 mph24.2 mphOvercast
3:53 AM32.0 °F24.1 °F73 %29.97 in10.0 miNW (310°)16.1 mphPartly Cloudy
4:53 AM32.0 °F21.9 °F66 %30.00 in10.0 miWNW (300°)12.7 mphClear
5:53 AM30.9 °F21.0 °F67 %30.04 in10.0 miWNW (300°)11.5 mph20.7 mphClear
6:53 AM30.9 °F18.0 °F59 %30.05 in10.0 miWNW (300°)12.7 mphClear
7:53 AM32.0 °F18.0 °F56 %30.08 in10.0 miNW (310°)16.1 mph20.7 mphClear
8:53 AM34.0 °F15.1 °F46 %30.10 in10.0 miWNW (300°)16.1 mph25.3 mphClear
9:53 AM36.0 °F15.1 °F43 %30.12 in10.0 miNW (320°)17.3 mph31.1 mphClear
10:53 AM37.9 °F16.0 °F41 %30.12 in10.0 miWNW (290°)20.7 mph28.8 mphPartly Cloudy
11:53 AM37.9 °F14.0 °F38 %30.12 in10.0 miWest (280°)24.2 mph33.4 mphScattered Clouds
12:53 PM39.0 °F12.9 °F34 %30.11 in10.0 miNW (310°)17.3 mph35.7 mphPartly Cloudy
1:53 PM39.0 °F10.9 °F32 %30.11 in10.0 miWNW (300°)17.3 mph31.1 mphClear
2:53 PM41.0 °F12.9 °F32 %30.12 in10.0 miWNW (300°)20.7 mph27.6 mphClear
3:53 PM39.9 °F12.0 °F32 %30.13 in10.0 miWNW (300°)18.4 mph29.9 mphClear
4:53 PM39.9 °F12.0 °F32 %30.14 in10.0 miWest (280°)19.6 mph27.6 mphClear
5:53 PM39.0 °F12.9 °F34 %30.17 in10.0 miWNW (290°)10.4 mph21.9 mphClear
6:53 PM36.0 °F16.0 °F44 %30.20 in10.0 miWest (260°)6.9 mphClear
7:53 PM35.1 °F19.0 °F52 %30.23 in10.0 miWSW (240°)8.1 mphClear
8:53 PM34.0 °F19.9 °F56 %30.25 in10.0 miWSW (240°)10.4 mphClear
9:53 PM33.1 °F21.0 °F61 %30.28 in10.0 miWSW (250°)9.2 mphClear
10:53 PM32.0 °F19.9 °F61 %30.29 in10.0 miSW (230°)3.5 mphClear
Hourly data recorded from KILM, located miles away from Wilmington, North Carolina







STORIES FROM OUR PARTNERS